Location: Camps Bay
(33.9517°S, 18.3844°E)
Time: 10:41:33
(UTC+00:00)

ADEOS - Pass Details

Date: 18 January 2020
Orbit: 792 x 795 km, 98.9° (Epoch: 18 February)

Event Time Altitude Azimuth Distance (km) Brightness Sun altitude
Exits shadow 02:23:09 21° 344° (NNW) 1,742 4.9 -16.5°
Maximum altitude 02:26:26 46° 280° (W) 1,060 3.8 -16.0°
Drops below altitude 10° 02:31:30 10° 206° (SSW) 2,389 6.2 -15.2°
Sets 02:33:57 0° 200° (SSW) 3,327 7.0 -14.8°
